QIANFAN-64

Satellite information

Favourite Embed

Satellite Type and Status

PAYLOADIN ORBIT

Key statistics

Satellite QIANFAN-64 at a glance.

Uptime

229

Days in orbit

Revolutions

≈ 13.5

Per day

Orbit

LEO

Low Earth Orbit

Inclination

89.0

Latest

Satellite identification and parameters

Extended collection of information and parameters for QIANFAN-64.

Object identification

Identified? True

Debris? False

Object name: QIANFAN-64

International designator: 2025-016K

Object number (NORAD): 62794

Object ID (CCSDS): 62794

Country: PEOPLES REPUBLIC OF CHINA (PRC)

Current information (Y/N): Y

RCS size: LARGE

Orbital parameters

Period: 106.591 minutes

Inclination: 88.9774 deg

SMA: 7446.852 km

Apoapsis: 1077.564 km

Periapsis: 1059.87 km

RAAN: 112.9496 deg

Eccentricy: 0.00118805

Argument of periapsis: 258.7679 deg

Mean anomaly: 101.2137 deg

Mean motion: 13.50963743 rev/day

Mean motion (dot): 0.00000111 rev/day2

B* drag term: 0.00015352189 1/REarth

Two-line elements (TLE)

Creation date: Sept. 8, 2025, 3:16 a.m.

Reference frame: TEME

Reference center: EARTH

Epoch: Sept. 7, 2025, 9:46 p.m. UTC

TLE line 0: 0 QIANFAN-64

TLE line 1: 1 62794U 25016K 25250.90722814 .00000111 00000-0 15352-3 0 9991

TLE line 2: 2 62794 88.9774 112.9496 0011880 258.7679 101.2137 13.50963743 34325

Live tracking on map

Real-time ground track for satellite QIANFAN-64.

In-orbit conjunctions

There are no conjunctions computed for QIANFAN-64, at the moment. Check back to stay up to date, as we update our databases every day.

Go to all conjunctions

Associated space launch

18 Low Earth Orbit communication satellites with Ku, Q and V band payloads for the G60 constellation operated by Shanghai Spacecom Satellite Technology (SSST) with funding backed by the Shanghai local government. Initial constellation will consist of 1296 satellites by 2027 with long term plans to expand it to 12000 satellites.

QIANFAN-64 was lifted into orbit during the mission ‘Long March 6A | G60 Polar Group 06’, on board a Long March 6A space rocket.

The launch took place on Jan. 23, 2025, 5:15 a.m. from Launch Complex 9A.

For more information about the launch, click the button.

Launch to space Long March 6A | G60 Polar Group 06
Long March 6A | G60 Polar Group 06

Agency: N/A

Status: Launch Successful

Launch date: Jan. 23, 2025, 5:15 a.m. UTC

Rocket: Long March 6A

Launch pad: Launch Complex 9A

Location: Taiyuan Satellite Launch Center, People's Republic of China

...

Latest news about this satellite

News about space launch
China launches fourth batch of Thousand Sails megaconstellation satellites

HELSINKI — China launched the fourth batch of 18 satellites for the Thousand Sails megaconstellation early Thursday using a Long March 6A rocket. The Long March 6A lifted off at […] The post China launches fourth batch of Thousand Sails megaconstellation...


Newsletter sign-up

Weekly statistics, charts and insights to help you stay on top of the space industry.